Location: Bronschhofen
(47.4788°N, 9.0353°E)
Time: 21:25:04
(UTC+00:00)

Cosmos 2219 Rocket - Pass Details

Date: 20 May 2022
Orbit: 827 x 847 km, 71.0° (Epoch: 01 July)

Event Time Altitude Azimuth Distance (km) Brightness Sun altitude
Exits shadow 00:39:34 40° 209° (SSW) 1,201 2.5 -20.3°
Maximum altitude 00:41:40 87° 294° (WNW) 835 2.1 -20.1°
Drops below altitude 10° 00:47:17 10° 27° (NNE) 2,443 5.8 -19.8°
Sets 00:49:44 0° 28° (NNE) 3,382 7.0 -19.7°
